TimeEST,TemperatureF,Dew PointF,Humidity,Sea Level PressureIn,VisibilityMPH,Wind Direction,Wind SpeedMPH,Gust SpeedMPH,PrecipitationIn,Events,Conditions,WindDirDegrees,DateUTC
12:54 AM,23.0,15.1,72,30.39,10.0,Calm,Calm,-,N/A,,Clear,0,2013-02-07 05:54:00
1:54 AM,23.0,14.0,68,30.40,10.0,NE,4.6,-,N/A,,Clear,40,2013-02-07 06:54:00
2:54 AM,23.0,14.0,68,30.42,10.0,Calm,Calm,-,N/A,,Clear,0,2013-02-07 07:54:00
3:54 AM,25.0,12.0,58,30.43,10.0,NE,3.5,-,N/A,,Clear,50,2013-02-07 08:54:00
4:54 AM,24.1,12.0,60,30.44,10.0,ENE,3.5,-,N/A,,Clear,60,2013-02-07 09:54:00
5:54 AM,24.1,12.9,62,30.45,10.0,NNE,3.5,-,N/A,,Clear,20,2013-02-07 10:54:00
6:54 AM,24.1,15.1,69,30.48,10.0,NNE,5.8,-,N/A,,Clear,30,2013-02-07 11:54:00
7:54 AM,26.1,12.0,55,30.51,10.0,NNE,6.9,-,N/A,,Clear,20,2013-02-07 12:54:00
8:54 AM,28.0,12.0,51,30.51,10.0,NE,6.9,-,N/A,,Clear,50,2013-02-07 13:54:00
9:54 AM,28.9,10.9,47,30.51,10.0,ENE,4.6,-,N/A,,Clear,60,2013-02-07 14:54:00
10:54 AM,30.9,10.9,43,30.51,10.0,ESE,3.5,-,N/A,,Clear,120,2013-02-07 15:54:00
11:54 AM,33.1,12.0,42,30.50,10.0,East,5.8,-,N/A,,Clear,90,2013-02-07 16:54:00
12:54 PM,33.1,14.0,46,30.46,10.0,ESE,8.1,-,N/A,,Clear,120,2013-02-07 17:54:00
1:54 PM,34.0,15.1,46,30.44,10.0,East,6.9,-,N/A,,Clear,100,2013-02-07 18:54:00
2:54 PM,35.1,16.0,46,30.43,10.0,ESE,8.1,-,N/A,,Scattered Clouds,120,2013-02-07 19:54:00
3:54 PM,34.0,19.9,56,30.41,10.0,East,12.7,-,N/A,,Clear,100,2013-02-07 20:54:00
4:54 PM,32.0,19.0,59,30.40,10.0,ESE,12.7,-,N/A,,Mostly Cloudy,110,2013-02-07 21:54:00
5:54 PM,30.9,18.0,59,30.41,10.0,East,11.5,-,N/A,,Scattered Clouds,100,2013-02-07 22:54:00
6:54 PM,30.0,17.1,59,30.43,10.0,East,8.1,-,N/A,,Clear,100,2013-02-07 23:54:00
7:54 PM,28.9,17.1,61,30.41,10.0,NE,5.8,-,N/A,,Mostly Cloudy,50,2013-02-08 00:54:00
8:54 PM,30.0,17.1,59,30.39,10.0,NE,6.9,-,N/A,,Overcast,50,2013-02-08 01:54:00
9:54 PM,30.9,18.0,59,30.37,10.0,NE,5.8,-,N/A,,Overcast,40,2013-02-08 02:54:00
10:54 PM,32.0,19.9,61,30.32,10.0,NE,8.1,-,N/A,,Overcast,50,2013-02-08 03:54:00
11:54 PM,34.0,23.0,64,30.30,10.0,NE,9.2,-,N/A,,Overcast,50,2013-02-08 04:54:00